Wind_Speed
20 19 19 18 18 18 18 18 17 17 17 17 17 17 17 17 17 17 16 16 16 15 15 14 14 14 14 14 14 14 14 13 13 13 13 14 13 13 13 12 12 11 11
21 20 19 19 19 19 19 19 18 18 18 18 18 18 18 18 17 17 17 17 16 16 16 16 15 15 15 14 14 14 14 14 14 13 13 13 13 12 12 12 12 13 13
20 20 20 20 20 20 20 20 19 19 19 19 19 19 19 19 18 18 18 18 18 17 17 17 17 17 16 16 16 15 15 15 15 15 14 14 13 13 12 13 13 13 13
20 20 20 20 20 20 20 20 20 19 19 19 19 19 19 20 19 19 19 19 19 19 19 18 18 17 17 17 17 16 16 16 17 16 16 15 14 14 14 14 14 14 14
21 21 21 21 21 21 20 20 19 19 19 19 19 19 19 19 19 19 20 20 20 20 20 20 20 19 18 18 18 18 18 17 18 17 17 16 16 15 15 15 15 16 16
22 21 21 21 21 20 20 20 20 20 20 20 20 20 20 20 20 20 21 21 22 22 22 22 22 21 21 20 20 20 19 19 19 19 19 18 18 17 17 17 16 17 17
22 22 22 22 22 22 21 21 21 21 21 22 22 22 22 22 22 22 22 22 23 23 23 23 23 23 23 23 22 22 21 21 20 20 20 20 20 19 18 18 18 18 18
23 23 23 23 23 23 23 22 22 22 22 22 23 23 23 23 24 24 23 23 23 23 24 24 24 24 24 24 24 24 24 24 23 23 22 22 22 21 21 20 20 20 20
24 24 24 24 23 23 23 24 24 24 24 24 24 25 25 25 25 25 25 24 24 24 24 25 25 26 26 26 26 26 26 26 25 24 24 24 24 23 22 22 22 22 21
24 24 24 24 24 24 25 25 26 26 25 25 25 25 26 26 26 27 27 26 26 26 26 26 26 27 27 28 28 27 27 27 26 26 26 25 25 24 24 23 23 22 22
25 25 25 24 25 25 26 26 27 26 26 26 27 27 27 27 27 28 28 28 28 28 28 27 27 28 29 29 28 28 28 28 28 27 27 27 27 26 26 25 24 24 23
26 26 26 26 26 26 27 27 27 28 28 28 28 28 28 29 29 29 30 30 30 30 30 29 30 30 30 30 30 30 30 30 29 28 28 28 28 28 28 27 26 26 25
26 27 26 26 27 27 28 28 28 29 29 29 29 29 29 30 31 31 31 31 31 31 31 30 30 31 31 31 31 31 31 31 31 30 30 30 29 29 28 28 28 28 27
27 27 27 27 27 28 28 29 29 29 29 30 30 30 29 30 30 31 31 31 32 32 32 32 31 32 32 32 32 32 32 32 32 31 31 30 31 31 30 30 29 29 28
28 28 28 28 28 29 29 29 29 29 29 29 30 30 30 29 29 30 30 31 32 33 33 33 33 33 33 33 33 33 33 33 33 33 32 32 32 31 31 31 31 30 30
29 29 29 29 29 30 30 29 29 29 30 30 30 30 31 30 30 30 30 31 31 32 32 33 33 33 34 34 34 34 34 33 33 33 33 33 33 32 32 32 32 31 31
29 28 28 29 29 29 29 29 29 29 30 30 30 31 31 31 31 31 31 31 31 32 32 32 32 33 33 34 34 34 34 34 34 34 33 33 33 32 32 32 32 32 32
28 28 29 29 30 30 29 29 29 29 29 29 29 30 31 31 31 31 31 32 32 32 32 33 33 33 33 33 33 34 34 34 34 34 34 34 33 32 32 32 32 32 32
28 29 29 29 29 30 30 30 30 30 30 30 30 30 30 30 31 31 31 32 31 31 32 32 32 32 33 33 33 34 34 34 34 34 34 33 33 33 32 32 32 32 32
29 29 29 29 29 29 29 29 30 30 31 31 30 30 31 31 31 31 31 32 32 32 33 33 33 32 32 33 33 33 34 34 34 34 34 34 33 33 32 32 32 33 33
29 29 29 29 29 30 30 30 30 30 31 31 31 31 31 31 32 32 32 31 32 32 33 33 33 33 32 32 33 33 33 34 34 35 35 34 34 34 34 33 32 33 34
30 29 30 30 30 30 30 31 31 31 31 31 31 31 31 31 31 32 32 32 32 32 32 32 32 32 32 32 32 33 33 33 33 33 34 33 34 34 34 34 33 34 34
30 30 30 31 31 31 31 31 31 32 32 32 32 32 32 32 32 32 32 31 32 32 32 32 31 32 32 32 32 32 32 32 32 33 33 34 33 34 34 34 34 34 35
31 31 31 30 31 31 31 31 31 31 32 32 32 32 31 32 32 32 31 32 31 31 31 31 31 31 32 32 32 32 32 32 33 33 33 33 34 35 35 35 34 34 34
31 31 31 31 31 31 31 31 31 31 31 31 31 31 31 31 31 31 31 31 31 31 31 31 31 31 31 31 31 31 31 31 32 32 33 32 33 34 35 35 35 35 35
30 30 30 31 31 31 30 30 30 30 30 31 30 30 30 30 30 30 30 30 30 30 30 30 30 30 31 31 31 31 31 31 32 32 31 31 32 33 34 34 34 34 34
Wind_Direction
281 282 282 282 283 283 283 281 281 280 277 276 274 273 272 268 266 268 268 268 270 269 267 268 268 269 270 271 273 272 272 275 277 278 279 279 277 278 279 278 278 277 278
279 279 279 279 281 283 281 279 279 280 277 275 272 272 270 268 266 265 266 267 268 269 268 267 268 269 269 267 271 272 270 272 274 277 278 277 276 276 276 275 275 277 278
279 278 278 278 281 282 281 279 277 277 276 274 272 271 269 267 266 266 266 265 266 267 267 267 267 268 268 266 267 268 268 271 272 273 274 274 273 274 275 273 272 274 275
278 276 278 279 280 281 280 278 276 275 273 273 272 271 269 267 264 264 264 265 265 266 267 267 268 266 265 264 264 266 266 269 269 270 272 272 272 272 272 273 273 274 274
278 277 277 277 277 278 277 277 276 275 274 273 271 270 269 267 265 265 264 264 266 267 266 266 267 266 265 264 264 265 264 267 268 267 270 271 270 271 270 271 272 274 275
276 275 275 277 276 275 274 275 275 274 273 272 271 270 268 267 266 266 266 266 267 267 265 265 265 265 265 264 263 263 264 265 266 266 267 269 269 269 269 269 271 274 275
276 275 274 275 276 275 274 274 275 274 273 272 271 270 268 268 268 268 269 268 267 267 266 265 265 264 264 263 263 263 263 264 266 265 266 268 268 267 268 269 271 273 272
276 276 276 276 275 275 273 273 274 275 274 272 271 269 267 267 267 268 270 270 269 268 268 266 266 265 263 262 262 262 263 264 264 265 265 266 267 266 268 270 272 273 271
277 276 276 276 275 276 275 274 274 274 274 273 273 271 268 267 267 268 269 269 269 269 269 268 267 265 264 263 262 262 263 263 263 263 266 265 266 266 268 271 271 273 270
277 276 277 277 276 276 275 275 276 276 275 275 275 273 270 268 267 267 267 267 267 268 268 268 268 265 264 264 263 262 262 262 263 263 264 264 264 265 268 270 270 269 268
278 277 277 277 277 276 276 276 277 277 275 276 275 275 273 271 269 268 267 266 266 267 268 267 267 265 264 264 263 262 261 261 261 261 262 263 263 263 266 268 268 268 267
279 277 276 276 277 277 277 277 277 277 277 277 278 277 274 273 271 268 267 267 266 267 267 267 266 265 264 263 262 261 260 260 260 261 261 261 261 263 264 266 266 265 265
279 278 276 276 276 277 278 277 277 278 278 278 279 279 277 275 273 271 269 267 267 267 267 267 266 264 262 262 261 261 261 261 261 261 260 260 260 260 261 262 263 263 264
280 279 277 277 277 278 281 279 279 279 280 279 279 279 278 277 275 273 271 268 267 267 267 267 265 264 263 263 263 261 261 261 261 261 261 261 260 260 259 260 261 263 264
281 280 279 277 278 279 282 281 281 281 281 281 280 279 278 278 275 273 273 271 270 268 268 267 265 264 263 263 263 262 261 261 261 261 260 260 262 262 261 260 260 261 262
282 281 279 279 279 280 281 282 282 282 282 281 280 279 278 278 275 274 273 273 272 271 270 268 266 265 264 263 264 264 262 261 261 262 261 261 261 262 262 261 259 260 261
283 283 281 279 280 281 282 282 282 284 283 282 281 279 278 278 276 274 274 273 272 272 271 270 268 267 265 264 264 264 262 261 261 261 261 260 260 261 261 260 258 259 260
284 284 282 280 280 281 282 281 282 283 284 283 282 281 279 278 276 275 274 274 273 274 273 271 270 268 267 265 264 263 261 260 259 259 259 260 260 261 260 259 258 258 259
285 286 285 283 282 282 282 282 282 282 282 283 282 282 280 278 276 275 275 275 275 275 273 272 271 269 268 266 265 263 261 260 258 258 258 258 258 259 259 258 258 258 258
284 285 285 285 284 283 283 283 283 282 282 283 283 282 280 278 277 276 275 274 275 275 274 273 271 271 269 266 265 264 262 259 258 258 258 257 256 257 257 256 256 257 258
284 284 285 286 286 286 285 284 285 285 285 285 284 284 282 279 277 276 275 276 275 274 273 273 271 271 270 266 265 265 263 260 259 258 257 257 257 257 256 256 258 258 259
284 285 285 286 286 286 286 286 285 286 287 286 285 284 283 280 278 278 277 276 276 275 274 272 271 270 269 267 266 265 264 261 259 258 257 258 258 257 256 256 258 259 259
287 286 286 286 286 286 286 287 287 287 287 287 286 284 283 282 280 278 277 277 276 276 274 273 271 270 268 266 265 265 263 260 258 257 256 256 257 257 256 257 258 259 259
289 288 287 286 286 286 286 286 286 287 288 288 287 286 284 283 282 279 278 277 275 273 272 272 272 271 269 266 264 263 261 260 259 258 257 257 257 257 257 259 258 259 259
288 288 287 287 287 287 287 287 287 287 288 288 288 287 285 284 283 281 278 276 274 273 272 272 271 271 270 268 264 262 261 261 260 259 259 258 258 258 258 258 259 259 259
289 289 289 288 288 287 287 287 287 288 288 288 288 287 286 284 282 280 278 276 275 274 274 273 273 272 271 268 265 263 261 260 259 259 258 258 258 258 258 258 259 261 261
Height
5807 5806 5806 5805 5805 5805 5804 5804 5803 5803 5803 5803 5803 5804 5805 5806 5807 5808 5809 5809 5810 5811 5812 5812 5813 5813 5814 5814 5814 5815 5815 5816 5817 5817 5817 5817 5817 5817 5817 5817 5817 5817 5817
5801 5801 5801 5800 5800 5799 5799 5799 5798 5798 5798 5798 5798 5799 5800 5801 5802 5803 5804 5805 5806 5806 5807 5808 5809 5809 5810 5810 5810 5811 5812 5812 5813 5813 5813 5813 5813 5813 5814 5814 5814 5814 5814
5796 5796 5796 5795 5795 5794 5794 5793 5793 5793 5793 5793 5793 5794 5795 5795 5797 5798 5799 5800 5801 5801 5802 5803 5804 5804 5805 5806 5806 5807 5807 5808 5808 5809 5809 5809 5810 5810 5810 5810 5810 5810 5810
5791 5791 5790 5790 5789 5789 5788 5788 5787 5787 5787 5788 5788 5789 5789 5790 5791 5792 5793 5794 5795 5796 5797 5798 5798 5799 5800 5801 5802 5802 5803 5803 5804 5804 5805 5805 5805 5805 5806 5806 5806 5806 5806
5785 5785 5785 5784 5784 5783 5783 5782 5782 5782 5782 5782 5783 5783 5784 5785 5786 5787 5787 5788 5789 5790 5791 5792 5793 5794 5795 5795 5796 5797 5797 5798 5799 5799 5800 5800 5801 5801 5801 5801 5802 5801 5801
5780 5779 5779 5778 5778 5778 5777 5777 5776 5776 5776 5776 5777 5777 5778 5779 5780 5780 5781 5782 5783 5784 5785 5785 5786 5788 5789 5789 5790 5791 5792 5793 5793 5794 5795 5795 5796 5796 5796 5796 5796 5796 5796
5773 5773 5773 5772 5772 5771 5771 5771 5770 5770 5770 5770 5771 5771 5772 5773 5773 5774 5774 5775 5776 5777 5778 5779 5780 5781 5782 5783 5784 5785 5786 5786 5787 5788 5789 5789 5790 5790 5790 5791 5791 5791 5790
5767 5766 5766 5766 5765 5765 5765 5765 5764 5764 5764 5764 5764 5764 5765 5765 5766 5766 5767 5768 5768 5769 5770 5771 5772 5773 5774 5775 5777 5778 5779 5780 5780 5781 5782 5783 5783 5784 5784 5785 5785 5784 5784
5760 5760 5759 5759 5758 5758 5758 5758 5758 5757 5757 5757 5757 5757 5757 5758 5758 5759 5759 5760 5761 5761 5762 5763 5764 5765 5766 5767 5768 5770 5771 5772 5773 5774 5775 5775 5776 5777 5777 5778 5778 5778 5778
5753 5752 5752 5752 5751 5751 5751 5750 5750 5750 5749 5749 5749 5749 5749 5750 5750 5750 5751 5752 5753 5753 5754 5755 5755 5756 5757 5758 5759 5761 5762 5763 5765 5766 5767 5767 5768 5769 5770 5770 5771 5771 5771
5746 5745 5745 5744 5744 5743 5743 5742 5742 5742 5742 5742 5741 5741 5741 5741 5741 5742 5742 5743 5744 5744 5745 5746 5746 5747 5748 5749 5750 5752 5753 5754 5755 5757 5758 5759 5760 5761 5762 5762 5763 5764 5764
5738 5738 5737 5737 5736 5736 5735 5735 5734 5734 5733 5733 5732 5732 5732 5732 5732 5732 5732 5733 5734 5735 5736 5736 5737 5737 5738 5739 5740 5742 5743 5744 5746 5747 5749 5750 5751 5752 5753 5754 5754 5755 5756
5730 5730 5729 5729 5728 5728 5727 5726 5726 5725 5724 5724 5723 5723 5722 5722 5721 5722 5722 5723 5723 5724 5725 5726 5727 5727 5728 5729 5731 5732 5733 5735 5736 5737 5739 5740 5742 5743 5744 5745 5745 5746 5747
5722 5722 5721 5721 5720 5719 5718 5717 5716 5716 5715 5714 5713 5713 5712 5712 5711 5711 5711 5712 5713 5713 5714 5715 5716 5717 5718 5719 5720 5722 5723 5725 5726 5727 5728 5730 5731 5732 5734 5735 5736 5737 5738
5714 5713 5713 5712 5711 5710 5709 5708 5707 5706 5705 5704 5704 5703 5703 5702 5702 5701 5701 5702 5702 5703 5703 5704 5705 5707 5708 5709 5710 5711 5712 5714 5715 5717 5718 5719 5720 5722 5723 5724 5726 5727 5729
5705 5704 5703 5703 5702 5701 5700 5699 5698 5697 5696 5695 5694 5693 5692 5692 5691 5691 5691 5691 5691 5692 5692 5694 5695 5696 5697 5698 5699 5700 5701 5703 5704 5705 5707 5708 5710 5711 5712 5714 5715 5717 5718
5696 5695 5694 5693 5692 5692 5690 5690 5689 5688 5686 5685 5684 5683 5682 5681 5681 5681 5681 5680 5680 5681 5682 5683 5684 5684 5685 5686 5687 5688 5690 5691 5692 5694 5695 5697 5699 5700 5702 5703 5704 5706 5708
5687 5686 5685 5684 5683 5682 5681 5680 5679 5678 5678 5676 5675 5673 5672 5671 5670 5670 5670 5670 5670 5671 5671 5672 5672 5673 5674 5674 5676 5677 5678 5679 5681 5683 5684 5685 5687 5689 5690 5692 5694 5695 5697
5678 5677 5675 5674 5673 5672 5671 5670 5669 5668 5667 5666 5665 5664 5662 5661 5660 5660 5660 5660 5660 5660 5660 5661 5661 5661 5662 5663 5664 5665 5666 5668 5669 5671 5672 5674 5676 5677 5679 5681 5683 5684 5686
5669 5668 5666 5665 5664 5663 5662 5660 5659 5658 5657 5656 5655 5654 5652 5651 5650 5650 5649 5649 5649 5650 5649 5649 5649 5650 5650 5651 5652 5652 5654 5656 5657 5659 5661 5662 5664 5666 5668 5669 5671 5673 5674
5660 5659 5657 5656 5655 5653 5652 5651 5649 5648 5647 5646 5644 5643 5642 5641 5640 5639 5639 5639 5639 5638 5638 5638 5637 5638 5638 5639 5640 5641 5642 5643 5645 5647 5649 5651 5652 5654 5656 5658 5660 5661 5663
5650 5649 5648 5646 5645 5644 5642 5641 5639 5638 5636 5635 5634 5632 5631 5630 5629 5628 5628 5628 5627 5627 5626 5626 5626 5626 5627 5627 5628 5629 5630 5632 5633 5635 5637 5638 5640 5642 5644 5646 5648 5649 5650
5640 5639 5638 5636 5635 5633 5632 5631 5629 5627 5626 5625 5623 5622 5620 5619 5618 5617 5617 5616 5616 5615 5615 5615 5615 5615 5615 5616 5617 5618 5619 5620 5622 5623 5625 5626 5628 5630 5632 5634 5635 5637 5638
5631 5629 5628 5626 5625 5623 5622 5620 5619 5617 5615 5614 5612 5611 5610 5608 5607 5606 5606 5605 5604 5604 5604 5604 5603 5604 5604 5604 5605 5606 5607 5608 5610 5611 5613 5614 5616 5618 5620 5621 5623 5624 5626
5621 5619 5618 5616 5615 5613 5612 5610 5609 5607 5605 5604 5602 5600 5599 5597 5596 5595 5595 5594 5594 5593 5593 5593 5592 5592 5593 5593 5593 5595 5596 5597 5598 5600 5601 5602 5604 5606 5607 5609 5611 5613 5614
5611 5609 5608 5606 5604 5603 5601 5600 5598 5597 5595 5593 5592 5590 5588 5587 5586 5585 5584 5583 5582 5582 5582 5582 5581 5581 5581 5581 5582 5583 5584 5585 5587 5588 5590 5591 5593 5594 5596 5597 5599 5600 5602